Temperature
17 17 16 16 16 16 16 16 16 16 16 16 16 15 15 15 15 15 15 15 15 15 14 14 14 14 14 14 14 14 14 14 13 13 13 12 12 12 12 12 12 12 12
17 16 16 16 16 16 16 16 16 16 16 16 16 15 15 15 15 15 15 15 14 15 14 14 14 14 14 14 14 14 13 13 13 13 13 12 12 12 12 11 11 11 11
16 16 16 16 16 16 16 16 16 16 16 16 15 15 15 15 15 15 15 14 14 14 14 14 14 14 14 14 14 13 13 13 13 13 12 12 12 12 11 11 11 11 11
16 16 16 16 16 16 16 16 16 16 15 15 15 15 15 15 15 15 15 14 14 14 14 14 14 14 14 14 14 13 13 13 12 12 12 12 12 11 11 11 11 11 10
16 16 16 16 16 16 16 16 15 15 15 15 15 15 15 15 15 15 14 14 14 14 14 14 14 14 13 13 13 13 13 13 12 12 12 11 11 11 11 11 11 10 10
16 16 16 15 15 16 15 15 15 15 15 15 15 15 15 15 15 14 14 14 14 14 14 14 14 13 13 13 13 13 13 12 12 12 11 11 11 11 11 10 10 10 9
16 15 15 15 15 15 15 15 15 15 15 15 15 15 15 14 14 14 14 14 14 14 13 13 13 13 13 13 13 13 12 12 12 12 11 11 11 11 10 10 10 10 9
15 15 15 15 15 15 15 15 15 15 15 15 14 14 14 14 14 14 14 14 14 14 13 13 13 13 13 12 12 12 12 12 12 11 11 11 11 10 10 10 10 9 9
15 15 15 15 15 15 15 15 15 14 14 14 14 14 14 14 14 14 14 14 14 13 13 13 13 13 12 12 12 12 12 11 11 11 11 11 10 10 10 10 9 9 9
15 15 15 15 15 14 14 14 14 14 14 14 14 14 14 14 14 14 14 14 13 13 13 13 12 12 12 12 12 11 11 11 11 10 10 10 10 10 10 9 9 8 8
15 15 15 15 15 14 14 14 14 14 14 14 14 14 14 14 14 14 14 14 13 13 13 12 12 12 12 12 11 11 11 10 10 10 10 10 10 9 9 9 8 8 8
15 15 15 14 14 14 14 14 14 14 13 13 13 13 13 13 13 13 13 13 13 13 12 12 12 12 11 11 11 11 11 10 10 10 9 9 9 9 9 8 8 8 7
15 15 14 14 14 14 14 14 14 13 13 13 13 13 13 13 13 13 13 13 12 12 12 12 11 11 11 11 11 10 10 10 10 9 9 9 8 8 8 8 8 7 7
14 14 14 14 14 14 14 14 13 13 13 13 13 13 13 13 13 13 13 12 12 12 12 11 11 11 10 10 10 10 10 9 9 9 9 8 8 8 8 7 7 7 7
14 14 14 13 13 13 13 13 13 13 13 13 13 13 13 13 13 13 13 12 12 12 11 11 10 10 10 10 10 9 9 9 9 8 8 8 8 7 7 7 6 6 6
13 13 13 13 13 13 13 13 13 13 13 13 13 13 13 12 12 12 12 12 11 11 11 10 10 10 10 9 9 9 9 8 8 8 8 7 7 7 7 6 6 6 5
13 13 13 13 13 13 13 13 13 13 12 12 12 12 12 12 12 12 11 11 11 11 10 10 10 10 9 9 9 9 8 8 8 8 7 7 7 6 6 6 5 5 5
13 13 13 12 12 12 12 12 12 12 12 12 12 12 12 12 11 11 11 10 10 10 10 10 10 9 9 9 9 8 8 8 8 7 7 7 6 6 6 5 5 5 4
12 12 12 12 12 12 12 12 12 12 12 12 12 11 11 11 11 11 10 10 10 10 10 9 9 9 9 8 8 8 8 7 7 7 6 6 6 6 5 5 5 4 4
12 12 12 12 12 11 11 11 11 11 11 11 11 11 11 11 10 10 10 10 9 9 9 9 9 9 9 8 8 8 7 7 7 6 6 6 6 5 5 4 4 4 3
12 12 12 11 11 11 11 11 11 11 11 10 10 10 10 10 10 10 10 10 9 9 9 9 9 8 8 8 7 7 7 6 6 6 6 6 5 5 4 4 4 3 3
11 11 11 11 11 11 10 10 10 10 10 10 10 10 10 10 10 9 9 9 9 9 9 8 8 8 8 7 7 7 6 6 6 6 6 5 5 4 4 4 3 3 2
11 11 11 11 11 10 10 10 10 10 9 9 9 9 9 9 9 9 9 9 8 8 8 8 7 7 7 7 7 6 6 6 6 5 5 5 5 4 4 3 3 2 2
11 11 11 10 10 10 10 9 9 9 9 9 9 9 9 9 9 9 8 8 8 7 7 7 7 7 7 6 6 6 6 5 5 5 5 4 4 4 3 3 3 2 2
10 10 10 10 10 9 9 9 9 9 9 9 8 8 8 8 8 8 8 7 7 7 7 7 7 6 6 6 6 6 5 5 5 5 4 4 4 3 3 3 2 2 2
9 9 9 9 9 9 9 9 8 8 8 8 8 8 8 8 8 8 7 7 7 6 6 6 6 6 6 5 5 5 5 5 4 4 4 4 3 3 3 2 2 2 1
Wind_Speed
2 2 3 2 2 2 1 1 1 2 3 3 3 3 3 4 4 3 2 2 2 1 2 2 2 2 1 1 1 2 2 2 2 1 1 2 2 2 2 3 5 6 6
2 2 1 2 3 2 2 2 2 2 2 2 2 2 2 3 3 4 3 2 2 1 1 2 2 2 2 2 2 1 1 2 2 1 1 2 2 2 2 1 3 4 5
2 2 2 2 3 3 3 2 2 2 2 2 2 2 2 2 2 2 3 2 2 2 2 2 2 3 2 2 2 2 1 2 2 2 1 1 2 2 2 2 3 2 3
2 2 2 2 2 2 2 2 1 2 2 2 2 2 3 2 2 2 2 2 2 2 3 3 3 4 2 2 2 1 1 2 2 2 1 1 1 1 2 2 2 1 2
2 3 3 2 2 2 3 2 2 2 2 2 2 2 2 2 2 2 2 2 2 2 3 4 5 7 7 4 3 2 2 2 2 2 1 1 1 2 1 1 1 1 1
4 3 2 2 2 2 2 3 3 2 2 2 2 2 2 2 4 4 3 1 2 2 2 3 3 5 6 6 7 7 6 4 2 2 1 1 1 0 1 1 0 1 1
3 3 3 3 2 2 3 3 3 3 2 2 2 2 2 2 4 3 3 2 1 1 2 2 2 3 4 3 3 4 5 5 4 3 2 1 0 1 0 1 1 0 1
3 3 3 3 3 2 2 3 3 3 3 3 2 2 2 2 4 3 3 2 0 1 1 2 2 2 2 3 4 3 2 2 2 2 2 1 2 2 1 1 1 0 1
3 3 3 4 4 4 3 3 3 3 3 4 3 3 3 3 4 4 4 2 1 0 1 2 2 2 4 5 4 2 2 1 2 3 3 2 4 5 5 3 2 2 1
3 3 4 4 4 5 5 4 3 3 3 4 3 3 4 3 4 6 6 3 2 2 1 1 3 3 4 5 3 2 1 1 2 2 1 1 1 3 4 2 1 1 0
2 2 3 4 4 4 4 4 4 4 4 3 3 3 3 3 4 6 8 3 3 3 2 2 2 5 4 4 3 2 1 1 2 2 1 1 0 1 1 2 2 1 1
1 2 3 4 4 4 4 4 4 4 4 4 3 3 2 3 3 5 8 7 4 3 2 2 2 6 5 4 3 2 2 2 1 1 1 0 0 0 1 1 2 2 2
1 2 3 4 4 4 4 5 4 4 4 4 4 4 3 2 3 6 6 6 5 3 2 3 4 5 5 3 3 3 2 1 1 1 1 0 0 0 1 1 2 2 3
3 3 2 3 3 3 3 3 3 4 4 4 4 4 3 3 3 3 3 4 4 4 3 3 3 4 3 3 2 2 1 1 1 1 1 1 0 1 0 0 0 0 1
2 2 1 1 3 3 2 2 4 4 5 5 5 5 4 4 4 6 5 4 4 4 3 2 2 2 2 2 2 2 2 1 1 1 1 0 0 0 0 0 1 0 0
2 2 2 2 2 3 3 2 1 3 4 5 5 5 4 5 5 6 6 6 5 6 4 3 3 3 3 3 3 2 2 2 2 2 1 1 1 1 1 0 1 1 1
3 3 2 2 3 3 3 3 2 1 2 3 5 6 6 6 6 6 6 5 5 6 4 3 3 3 3 2 2 2 2 2 2 2 2 2 2 1 1 1 1 1 2
3 3 3 3 3 4 4 4 4 3 3 2 3 5 6 6 6 6 6 5 3 3 3 3 3 3 3 3 2 2 2 2 2 2 2 2 2 1 1 1 1 2 2
3 3 3 3 3 3 3 3 3 4 3 3 3 3 5 5 6 6 7 4 4 4 3 3 3 2 2 2 2 2 3 2 2 2 2 2 2 2 2 2 2 2 2
3 5 4 3 3 3 3 3 3 4 4 4 4 4 4 4 3 4 4 4 4 3 3 3 2 2 2 3 3 3 3 3 3 2 2 2 2 2 2 2 2 1 2
3 4 5 5 4 3 3 3 4 3 4 4 4 4 7 5 5 5 4 4 4 4 3 3 3 3 3 2 2 3 3 3 3 2 2 2 2 2 2 2 2 2 1
3 3 3 4 3 3 3 3 3 4 4 4 3 4 7 4 4 4 4 4 4 3 3 3 3 3 2 2 3 3 2 2 2 2 3 2 2 2 2 2 2 2 1
3 3 3 3 3 4 4 3 3 3 3 3 3 4 4 4 4 4 4 3 3 3 3 3 3 2 2 2 3 3 3 3 2 2 2 2 2 2 2 2 2 2 2
2 3 3 3 3 3 4 4 4 4 4 4 4 4 4 4 4 4 4 3 3 3 3 3 3 3 3 3 3 3 3 3 3 3 3 3 3 3 2 2 2 2 2
3 3 3 3 3 3 3 4 4 4 4 4 4 4 4 4 4 4 3 3 3 3 3 3 3 3 4 4 3 3 4 4 4 3 3 3 3 3 2 2 2 2 2
3 3 3 3 3 3 3 3 4 3 3 3 3 3 4 4 4 4 3 3 3 3 3 3 3 3 4 4 4 4 5 5 5 4 3 2 3 3 2 2 3 3 2
Wind_Direction
213 191 177 172 169 161 155 149 153 160 163 165 160 150 151 146 133 124 130 122 128 130 120 109 81 72 61 40 44 42 44 86 113 11 55 91 92 79 88 121 125 116 109
209 196 188 163 167 181 178 183 186 175 168 158 142 136 139 135 139 145 148 142 135 115 96 93 98 82 61 59 60 52 64 91 116 101 27 44 60 78 76 58 95 110 117
187 199 187 193 179 178 176 166 175 165 161 144 125 122 109 109 123 140 147 140 125 112 102 83 78 88 72 56 53 49 59 75 94 112 64 35 37 44 49 31 54 67 106
176 199 192 194 179 175 158 152 162 157 155 153 138 133 122 116 112 111 111 111 102 94 90 81 66 71 70 69 66 51 78 81 86 104 102 45 33 15 51 23 7 6 50
190 204 203 200 179 169 160 162 158 148 151 135 126 121 114 113 80 80 97 114 102 89 85 90 86 81 71 64 62 48 54 76 88 96 103 63 35 35 356 306 334 327 46
191 205 193 183 185 176 175 160 148 137 125 106 117 115 104 105 94 88 80 85 118 135 132 127 123 106 99 87 76 71 72 74 78 94 91 91 19 328 311 328 357 18 331
189 191 177 177 187 180 170 149 149 150 142 146 144 124 123 120 119 106 96 82 106 156 148 143 127 127 130 139 108 84 65 60 72 101 84 48 311 308 318 325 323 305 209
186 188 172 172 174 170 158 163 168 166 158 156 151 147 138 135 143 136 133 130 342 46 95 119 129 141 130 135 131 116 103 75 88 96 116 72 34 17 55 201 236 4 87
192 191 179 175 179 179 182 185 181 169 166 160 166 161 165 175 168 162 144 147 161 122 80 85 102 109 106 120 122 129 135 155 120 123 128 98 52 40 41 48 38 52 338
203 203 191 182 182 189 194 188 178 167 161 157 161 168 173 180 172 171 162 164 176 174 136 95 91 103 110 129 134 144 169 188 136 125 109 55 30 27 35 50 114 110 295
194 196 184 176 184 189 190 187 174 166 165 169 165 170 179 182 175 176 171 176 183 174 159 163 148 130 127 138 140 153 172 125 139 153 158 165 105 46 33 23 32 115 156
178 186 188 183 184 187 182 185 178 172 174 180 178 182 191 178 160 171 174 181 177 171 173 168 149 138 139 144 155 147 107 76 83 102 109 119 134 93 78 54 36 30 33
195 200 199 193 185 181 185 184 179 183 187 192 188 192 191 173 160 157 165 174 179 180 170 146 135 144 148 152 151 140 123 128 145 158 193 243 252 139 81 58 46 37 13
207 201 201 193 184 177 176 179 181 187 192 198 194 195 191 177 168 167 169 174 175 184 186 162 159 168 175 171 158 169 170 168 164 198 213 219 116 68 48 91 73 38 15
210 190 183 183 182 180 169 184 188 187 190 195 202 199 187 193 197 180 174 184 188 187 175 166 165 168 179 188 180 174 175 180 203 215 203 222 180 196 241 139 122 130 240
205 202 202 212 192 178 168 160 145 180 174 174 177 180 184 186 178 172 171 168 165 163 159 178 193 194 194 195 192 192 188 193 199 194 197 213 217 220 231 180 158 193 238
209 208 205 208 200 191 186 184 194 202 155 173 178 177 182 176 172 171 172 163 151 149 164 191 198 201 199 193 192 192 201 198 186 186 205 219 219 217 212 225 235 246 248
215 211 215 215 206 204 202 197 193 195 198 214 203 190 187 180 172 165 157 140 151 167 189 197 203 202 200 198 194 195 200 193 186 197 207 216 211 213 221 225 232 243 249
220 215 221 223 215 208 202 196 196 196 203 196 177 180 188 183 171 165 157 166 184 194 202 204 203 199 201 200 198 198 198 200 200 198 208 215 214 212 223 231 239 251 245
220 218 221 222 224 212 202 201 200 202 206 199 195 186 164 157 169 179 187 191 192 200 202 205 207 202 202 202 201 197 200 202 200 202 208 210 212 210 219 221 223 233 236
224 222 217 219 220 215 204 202 201 204 209 202 200 188 169 176 184 186 189 196 202 207 206 205 207 213 215 209 199 198 202 205 199 200 201 207 211 210 210 211 219 223 234
216 221 226 222 212 208 204 199 201 203 209 207 194 183 178 183 188 187 192 199 200 201 190 193 204 206 205 207 199 201 209 216 211 205 202 204 206 203 198 203 210 220 220
217 219 231 230 210 197 201 203 200 200 206 213 195 184 181 187 187 187 191 194 190 183 169 172 191 201 189 185 192 192 206 215 215 202 202 204 204 201 200 208 212 217 228
233 224 223 224 218 204 201 204 205 201 203 205 200 195 188 184 185 189 191 191 183 178 171 180 194 202 196 185 190 192 204 211 200 197 195 202 206 205 203 208 215 220 224
234 229 225 219 220 220 209 205 207 201 200 199 196 192 188 183 180 182 188 181 185 185 184 188 186 190 197 195 188 190 205 203 202 205 207 199 198 204 200 204 214 223 228
232 227 227 223 217 218 214 207 205 201 199 199 193 186 184 183 178 177 179 180 184 184 191 193 194 197 198 195 199 200 200 199 200 203 201 199 190 196 201 208 210 214 219
Height
1545 1546 1547 1548 1548 1549 1549 1550 1551 1552 1552 1553 1553 1554 1554 1554 1555 1555 1555 1556 1556 1556 1557 1557 1557 1557 1557 1557 1557 1557 1557 1558 1558 1558 1558 1558 1557 1556 1555 1554 1553 1552 1551
1543 1544 1545 1545 1546 1547 1548 1549 1549 1550 1551 1552 1552 1553 1553 1554 1554 1554 1555 1555 1555 1556 1556 1556 1556 1556 1556 1556 1556 1556 1557 1557 1557 1556 1557 1557 1556 1555 1555 1554 1553 1552 1551
1541 1542 1542 1543 1544 1545 1546 1547 1548 1549 1550 1550 1551 1552 1552 1552 1553 1554 1554 1554 1555 1555 1555 1555 1555 1555 1555 1555 1555 1555 1555 1555 1555 1555 1555 1555 1555 1554 1553 1553 1552 1551 1550
1539 1540 1540 1541 1542 1543 1544 1545 1546 1547 1548 1548 1549 1550 1551 1551 1552 1552 1553 1553 1554 1554 1554 1554 1554 1554 1553 1554 1554 1554 1554 1554 1554 1554 1554 1553 1553 1553 1552 1551 1550 1550 1549
1537 1537 1538 1539 1540 1541 1542 1543 1544 1545 1546 1547 1547 1548 1549 1549 1550 1551 1551 1552 1552 1552 1553 1553 1552 1552 1552 1552 1552 1552 1552 1552 1552 1552 1552 1552 1551 1551 1550 1549 1549 1548 1547
1535 1535 1536 1536 1537 1538 1539 1541 1542 1542 1543 1545 1545 1546 1547 1547 1548 1549 1550 1550 1550 1551 1551 1551 1551 1551 1551 1551 1551 1551 1551 1551 1551 1551 1550 1550 1549 1549 1549 1548 1547 1546 1545
1532 1533 1534 1534 1535 1536 1537 1538 1539 1540 1541 1542 1543 1544 1545 1546 1546 1547 1548 1548 1548 1549 1549 1549 1549 1549 1549 1549 1549 1549 1549 1549 1549 1549 1548 1548 1548 1547 1546 1546 1545 1544 1543
1530 1530 1531 1532 1533 1534 1535 1536 1537 1538 1539 1540 1541 1542 1543 1543 1544 1545 1545 1546 1546 1547 1547 1547 1547 1547 1547 1547 1547 1547 1547 1547 1547 1547 1547 1546 1546 1545 1544 1544 1543 1542 1542
1527 1527 1528 1529 1530 1531 1532 1533 1534 1535 1536 1537 1538 1539 1540 1541 1542 1542 1543 1543 1544 1544 1545 1545 1545 1545 1545 1545 1545 1545 1545 1545 1545 1545 1545 1544 1543 1543 1542 1542 1541 1540 1539
1524 1524 1525 1526 1527 1528 1529 1530 1531 1532 1533 1534 1535 1536 1537 1538 1539 1540 1540 1541 1541 1542 1542 1542 1543 1543 1543 1543 1543 1543 1543 1543 1543 1543 1542 1542 1541 1540 1540 1539 1539 1538 1537
1521 1522 1522 1523 1524 1525 1526 1528 1529 1529 1530 1531 1532 1533 1534 1535 1536 1537 1537 1538 1538 1539 1539 1540 1540 1540 1540 1540 1540 1540 1540 1541 1540 1540 1540 1539 1539 1538 1537 1537 1536 1536 1535
1519 1519 1519 1520 1521 1522 1523 1524 1526 1527 1527 1528 1529 1530 1531 1532 1533 1533 1534 1535 1535 1536 1536 1537 1537 1537 1537 1537 1538 1538 1538 1538 1538 1537 1537 1536 1536 1535 1535 1534 1534 1533 1533
1516 1516 1516 1517 1518 1519 1519 1520 1521 1523 1524 1525 1526 1527 1528 1529 1529 1530 1531 1531 1532 1532 1533 1534 1534 1534 1534 1534 1534 1535 1535 1535 1534 1534 1534 1534 1533 1533 1532 1532 1531 1530 1530
1513 1513 1514 1514 1514 1515 1516 1517 1518 1519 1520 1521 1522 1523 1524 1525 1526 1526 1527 1528 1529 1529 1530 1530 1530 1531 1531 1531 1531 1531 1531 1531 1531 1531 1531 1531 1531 1530 1529 1528 1528 1527 1526
1510 1510 1510 1511 1511 1512 1513 1514 1515 1516 1516 1517 1518 1520 1520 1521 1522 1523 1523 1524 1525 1526 1526 1526 1526 1526 1527 1527 1527 1527 1528 1528 1528 1528 1528 1528 1527 1526 1526 1525 1524 1524 1522
1507 1507 1507 1508 1508 1509 1510 1511 1511 1513 1513 1514 1515 1517 1517 1518 1519 1519 1520 1521 1521 1522 1523 1522 1522 1522 1523 1523 1523 1523 1524 1524 1524 1524 1524 1524 1523 1523 1522 1521 1521 1520 1519
1504 1504 1505 1505 1505 1506 1506 1507 1508 1509 1510 1510 1511 1512 1513 1514 1515 1515 1516 1517 1518 1518 1518 1518 1518 1519 1519 1519 1520 1520 1520 1520 1521 1521 1520 1520 1520 1519 1518 1518 1517 1516 1515
1501 1501 1502 1502 1502 1503 1503 1504 1505 1505 1505 1506 1507 1508 1509 1510 1511 1512 1512 1513 1513 1514 1514 1514 1514 1515 1515 1515 1516 1516 1516 1516 1516 1516 1516 1516 1516 1515 1515 1514 1513 1513 1512
1497 1498 1498 1499 1499 1499 1500 1500 1501 1501 1502 1502 1503 1504 1505 1506 1507 1507 1508 1508 1508 1508 1509 1509 1510 1511 1511 1512 1512 1512 1512 1512 1512 1512 1512 1512 1511 1511 1510 1510 1509 1509 1508
1493 1494 1494 1495 1495 1495 1496 1497 1497 1497 1498 1498 1499 1499 1500 1501 1501 1502 1503 1503 1504 1504 1505 1505 1506 1507 1507 1507 1507 1508 1508 1508 1508 1508 1508 1507 1507 1507 1506 1506 1505 1505 1504
1490 1490 1490 1491 1491 1491 1492 1492 1493 1493 1494 1494 1495 1496 1497 1497 1497 1498 1498 1499 1499 1500 1500 1501 1502 1502 1502 1502 1503 1503 1503 1503 1503 1503 1503 1503 1503 1502 1502 1502 1501 1501 1501
1486 1486 1486 1486 1487 1487 1488 1488 1489 1489 1490 1490 1490 1492 1492 1493 1493 1494 1494 1494 1495 1496 1496 1497 1497 1498 1498 1498 1498 1498 1499 1499 1499 1499 1499 1499 1499 1498 1498 1498 1497 1497 1497
1481 1481 1482 1482 1482 1483 1483 1484 1484 1485 1485 1486 1486 1487 1487 1488 1489 1489 1490 1490 1491 1491 1492 1492 1493 1493 1493 1494 1494 1494 1494 1494 1494 1494 1494 1494 1494 1494 1494 1494 1494 1493 1493
1477 1477 1477 1478 1478 1479 1479 1479 1480 1480 1481 1481 1482 1482 1483 1484 1484 1485 1485 1486 1486 1487 1487 1488 1488 1488 1489 1489 1489 1490 1490 1490 1490 1490 1490 1490 1490 1490 1490 1489 1489 1489 1489
1473 1473 1473 1473 1474 1474 1475 1475 1476 1476 1477 1477 1478 1478 1479 1479 1480 1480 1481 1481 1482 1482 1483 1483 1483 1484 1484 1484 1485 1485 1485 1485 1485 1485 1485 1485 1485 1485 1485 1485 1485 1485 1485
1468 1468 1469 1469 1469 1470 1470 1471 1471 1472 1473 1473 1474 1474 1474 1475 1475 1476 1476 1477 1477 1478 1478 1479 1479 1479 1479 1480 1480 1480 1481 1481 1481 1481 1481 1481 1481 1481 1481 1481 1481 1481 1481